This is the latest recevied weather packets stored in our database for station/object N5ATR. If no packets are shown the sender has not sent any weather packets the latest 10 day(s).
| Time | Temp. | Humidity | Pressure | Rain* | Wind** | Luminosity | Snow |
|---|---|---|---|---|---|---|---|
| 1787989547 | 21.11° C | 45% | 1025.4 hPa | 0 mm | - | 0 W/m² | - |
| 1787989245 | 21.67° C | 44% | 1025.4 hPa | 0 mm | - | 0 W/m² | - |
| 1787988945 | 21.67° C | 44% | 1025.2 hPa | 0 mm | - | 0 W/m² | - |
| 1787988645 | 21.67° C | 44% | 1025.5 hPa | 0 mm | - | 0 W/m² | - |
| 1787988342 | 21.11° C | 45% | 1025.5 hPa | 0 mm | - | 0 W/m² | - |
| 1787988041 | 21.11° C | 46% | 1025.5 hPa | 0 mm | - | 0 W/m² | - |
| 1787987737 | 21.11° C | 45% | 1025.7 hPa | 0 mm | - | 0 W/m² | - |
| 1787987436 | 21.67° C | 44% | 1025.6 hPa | 0 mm | - | 0 W/m² | - |
| 1787987132 | 21.11° C | 45% | 1025.7 hPa | 0 mm | - | 0 W/m² | - |
| 1787986826 | 21.11° C | 45% | 1025.6 hPa | 0 mm | - | 0 W/m² | - |
| 1787986526 | 20.56° C | 46% | 1025.7 hPa | 0 mm | - | 0 W/m² | - |
| 1787986220 | 20.56° C | 46% | 1025.2 hPa | 0 mm | - | 0 W/m² | - |
| 1787985920 | 21.67° C | 45% | 1025.4 hPa | 0 mm | - | 0 W/m² | - |
| 1787985614 | 21.67° C | 45% | 1025.4 hPa | 0 mm | - | 0 W/m² | - |
| 1787985309 | 21.67° C | 44% | 1025.5 hPa | 0 mm | - | 0 W/m² | - |
| 1787985009 | 21.67° C | 44% | 1025.4 hPa | 0 mm | - | 0 W/m² | - |
| 1787984703 | 21.67° C | 44% | 1025.5 hPa | 0 mm | - | 0 W/m² | - |
| 1787984398 | 21.67° C | 44% | 1025.4 hPa | 0 mm | - | 0 W/m² | - |
| 1787984096 | 22.22° C | 44% | 1025.4 hPa | 0 mm | - | 0 W/m² | - |
| 1787983792 | 21.67° C | 44% | 1025.4 hPa | 0 mm | - | 0 W/m² | - |
| 1787983491 | 22.22° C | 44% | 1025.4 hPa | 0 mm | - | 0 W/m² | - |
| 1787983186 | 22.22° C | 43% | 1025.5 hPa | 0 mm | - | 0 W/m² | - |
| 1787982882 | 22.22° C | 43% | 1025.5 hPa | 0 mm | - | 0 W/m² | - |
| 1787982583 | 21.67° C | 44% | 1025.2 hPa | 0 mm | - | 0 W/m² | - |
| 1787982279 | 22.22° C | 44% | 1025.2 hPa | 0 mm | - | 0 W/m² | - |
* Rain latest hour (hover to see other rain measurements)
** Current wind speed in m/s (hover to see current wind gust speed)